TimeWET,TemperatureF,Dew PointF,Humidity,Sea Level PressureIn,VisibilityMPH,Wind Direction,Wind SpeedMPH,Gust SpeedMPH,PrecipitationIn,Events,Conditions,WindDirDegrees,DateUTC
6:00 AM,42,27,42,,12,NNE,2.3,,,,Clear,20,2013-03-03 06:00:00
6:00 AM,42.8,24.8,49,29.95,-9999.0,NNE,2.3,-,N/A,,Clear,20,2013-03-03 06:00:00
7:00 AM,41.0,24.8,53,29.95,-9999.0,ENE,2.3,-,N/A,,Clear,60,2013-03-03 07:00:00
8:00 AM,42.8,24.8,49,29.95,-9999.0,NW,2.3,-,N/A,,Clear,320,2013-03-03 08:00:00
9:00 AM,51,33,39,,12,South,2.3,,,,Clear,180,2013-03-03 09:00:00
9:00 AM,51.8,33.8,50,29.95,-9999.0,South,2.3,-,N/A,,Clear,180,2013-03-03 09:00:00
10:00 AM,57.2,33.8,41,29.98,-9999.0,South,9.2,-,N/A,,Clear,180,2013-03-03 10:00:00
11:00 AM,59.0,33.8,39,29.98,-9999.0,South,9.2,-,N/A,,Clear,180,2013-03-03 11:00:00
12:00 PM,61,32,22,,12,South,6.9,,,,Clear,180,2013-03-03 12:00:00
12:00 PM,60.8,32.0,34,29.95,-9999.0,South,6.9,-,N/A,,Clear,180,2013-03-03 12:00:00
1:00 PM,62.6,24.8,24,29.92,-9999.0,South,9.2,-,N/A,,Clear,180,2013-03-03 13:00:00
2:00 PM,64.4,15.8,15,29.86,-9999.0,South,9.2,-,N/A,,Clear,180,2013-03-03 14:00:00
3:00 PM,64,17,8,,12,SW,6.9,,,,,220,2013-03-03 15:00:00
3:00 PM,64.4,17.6,16,29.83,-9999.0,SW,6.9,-,N/A,,Clear,220,2013-03-03 15:00:00
4:00 PM,64.4,15.8,15,29.83,6.2,SW,6.9,-,N/A,,Mostly Cloudy,220,2013-03-03 16:00:00
5:00 PM,64.4,17.6,16,29.83,6.2,SW,9.2,-,N/A,,Mostly Cloudy,220,2013-03-03 17:00:00
6:00 PM,63,17,8,,12,WSW,9.2,,,,Partly Cloudy,240,2013-03-03 18:00:00
6:00 PM,62.6,17.6,18,29.83,6.2,WSW,9.2,-,N/A,,Mostly Cloudy,240,2013-03-03 18:00:00
9:00 PM,60,30,20,,9,Calm,Calm,,,,Partly Cloudy,,2013-03-03 21:00:00
9:00 PM,60.8,30.2,31,29.83,6.2,Calm,Calm,-,N/A,,Scattered Clouds,0,2013-03-03 21:00:00